NOAA 20 (43013 NORAD) Tracking and Keplerian Element Data

This shows tracking and keplerian element data for the satellite.

Feedback or suggestion? Click here.




ElementValue
Catalog43013
NameNOAA 20
Epoch Orbit25166
Epoch Day270.21437735
Epoch Year2022
RAAN207.1963
Inclination98.7213
Eccentricity0.0001574
Argument of Perigee98.2213
Mean Anonmoly261.9141
Mean Motion14.19545193
Decay Rate5.7E-07
L11 43013U 17073A 22270.21437735 .00000057 00000+0 47693-4 0 9998
L22 43013 98.7213 207.1963 0001574 98.2213 261.9141 14.19545193251669

Live tracking and technical data element details for NOAA 20 (NORAD 43013). NOAA 20 can be tracked NOW for your location showing map with azimuth and elevation plus other details from your city location.

Track the satellite on the map from your city or location and see movement details for azimuth, elevation, latitude, longitude, range, height, and movement on the map or in text.







IsCatalogInMostPopularTable: catalog: 43013, numindb: 826
Update: records affected: 1



GetName: 43013 NOAA 20

Hit Count: updated at: Thu, 29 Sep 2022 10:28:46 GMT